• In Romania
  • List of Countries
  • For 7 days
  • Water Temperature
  • Satellite Maps
  • Weather Map
  • Weather Widgets
  • user-avatar
    Login

    Hourly Weather Tatischevo

    Today, 25 June, Monday

    Time Temperature Precipitation Wind Pressure Humidity
    00:00 +21°C° 0 mm 2 mps 741 mmHg 63%
    01:00 +22°C° 0 mm 1 mps 741 mmHg 67%
    02:00 +21°C° 0 mm 1 mps 742 mmHg 71%
    03:00 +20°C° 0 mm 1 mps 742 mmHg 75%
    04:00 +21°C° 0 mm 1 mps 742 mmHg 75%
    05:00 +22°C° 0 mm 1 mps 742 mmHg 75%
    06:00 +21°C° 0 mm 2 mps 743 mmHg 75%
    07:00 +24°C° 0 mm 1 mps 743 mmHg 70%
    08:00 +26°C° 0 mm 1 mps 743 mmHg 65%
    09:00 +28°C° 0 mm 1 mps 743 mmHg 59%
    10:00 +29°C° 0 mm 1 mps 743 mmHg 55%
    11:00 +30°C° 0 mm 1 mps 743 mmHg 50%
    12:00 +31°C° 0 mm 1 mps 744 mmHg 46%
    13:00 +31°C° 0 mm 1 mps 744 mmHg 44%
    14:00 +32°C° 0 mm 1 mps 744 mmHg 43%
    15:00 +32°C° 0 mm 1 mps 744 mmHg 41%
    16:00 +31°C° 0.1 mm 2 mps 744 mmHg 45%
    17:00 +31°C° 0.1 mm 2 mps 744 mmHg 50%
    18:00 +30°C° 0.1 mm 2 mps 744 mmHg 54%
    19:00 +28°C° 0.2 mm 3 mps 744 mmHg 62%
    20:00 +26°C° 0.2 mm 3 mps 744 mmHg 71%
    21:00 +24°C° 0.2 mm 3 mps 744 mmHg 79%
    22:00 +22°C° 0.2 mm 3 mps 744 mmHg 81%
    23:00 +22°C° 0.2 mm 3 mps 744 mmHg 84%

    Tomorrow, 26 June, Tuesday

    Time Temperature Precipitation Wind Pressure Humidity
    00:00 +21°C° 0.2 mm 3 mps 744 mmHg 87%
    01:00 +20°C° 0.3 mm 3 mps 744 mmHg 88%
    02:00 +20°C° 0.3 mm 3 mps 744 mmHg 90%
    03:00 +20°C° 0.3 mm 3 mps 744 mmHg 91%
    04:00 +20°C° 0 mm 3 mps 744 mmHg 89%
    05:00 +21°C° 0 mm 3 mps 744 mmHg 87%
    06:00 +23°C° 0 mm 2 mps 744 mmHg 85%
    07:00 +24°C° 0 mm 2 mps 744 mmHg 77%
    08:00 +26°C° 0 mm 2 mps 744 mmHg 70%
    09:00 +28°C° 0 mm 2 mps 744 mmHg 63%
    10:00 +29°C° 0 mm 2 mps 744 mmHg 57%
    11:00 +31°C° 0 mm 2 mps 744 mmHg 51%
    12:00 +32°C° 0 mm 2 mps 744 mmHg 45%
    13:00 +32°C° 0 mm 2 mps 744 mmHg 43%
    14:00 +33°C° 0 mm 1 mps 744 mmHg 41%
    15:00 +33°C° 0 mm 1 mps 744 mmHg 39%
    16:00 +33°C° 0 mm 1 mps 744 mmHg 42%
    17:00 +33°C° 0 mm 1 mps 743 mmHg 46%
    18:00 +32°C° 0 mm 2 mps 743 mmHg 49%
    19:00 +30°C° 0 mm 2 mps 743 mmHg 55%
    20:00 +28°C° 0 mm 2 mps 743 mmHg 61%
    21:00 +26°C° 0 mm 2 mps 744 mmHg 66%
    22:00 +25°C° 1.1 mm 3 mps 744 mmHg 72%
    23:00 +23°C° 1.1 mm 4 mps 744 mmHg 77%

    Day after tomorrow, 27 June, Wednesday

    Time Temperature Precipitation Wind Pressure Humidity
    00:00 +22°C° 1.1 mm 5 mps 743 mmHg 83%
    01:00 +22°C° 0.4 mm 4 mps 743 mmHg 83%
    02:00 +22°C° 0.4 mm 3 mps 743 mmHg 83%
    03:00 +21°C° 0.4 mm 2 mps 743 mmHg 83%
    04:00 +23°C° 0.1 mm 2 mps 744 mmHg 82%
    05:00 +23°C° 0.1 mm 2 mps 744 mmHg 81%
    06:00 +24°C° 0.1 mm 2 mps 744 mmHg 80%
    07:00 +25°C° 0.1 mm 2 mps 744 mmHg 75%
    08:00 +26°C° 0.1 mm 2 mps 744 mmHg 69%
    09:00 +27°C° 0.1 mm 2 mps 744 mmHg 64%
    10:00 +28°C° 0.5 mm 2 mps 744 mmHg 61%
    11:00 +29°C° 0.5 mm 3 mps 744 mmHg 57%
    12:00 +30°C° 0.5 mm 3 mps 744 mmHg 54%
    13:00 +30°C° 0.1 mm 3 mps 744 mmHg 53%
    14:00 +31°C° 0.1 mm 3 mps 744 mmHg 52%
    15:00 +31°C° 0.1 mm 3 mps 743 mmHg 51%
    16:00 +30°C° 0.5 mm 3 mps 743 mmHg 56%
    17:00 +30°C° 0.5 mm 3 mps 743 mmHg 61%
    18:00 +29°C° 0.5 mm 3 mps 743 mmHg 66%
    19:00 +27°C° 0.1 mm 3 mps 743 mmHg 72%
    20:00 +26°C° 0.1 mm 3 mps 743 mmHg 77%
    21:00 +24°C° 0.1 mm 3 mps 743 mmHg 83%
    22:00 +24°C° 0 mm 3 mps 743 mmHg 85%
    23:00 +22°C° 0 mm 3 mps 743 mmHg 87%

    28 June, Thursday

    Time Temperature Precipitation Wind Pressure Humidity
    00:00 +21°C° 0 mm 3 mps 743 mmHg 89%
    01:00 +21°C° 0 mm 3 mps 743 mmHg 89%
    02:00 +20°C° 0 mm 3 mps 743 mmHg 89%
    03:00 +19°C° 0 mm 3 mps 743 mmHg 89%
    04:00 +20°C° 0 mm 3 mps 744 mmHg 85%
    05:00 +20°C° 0 mm 3 mps 744 mmHg 81%
    06:00 +20°C° 0 mm 4 mps 744 mmHg 77%
    07:00 +22°C° 0 mm 4 mps 744 mmHg 72%
    08:00 +25°C° 0 mm 4 mps 744 mmHg 68%
    09:00 +26°C° 0 mm 5 mps 744 mmHg 63%
    10:00 +27°C° 0 mm 5 mps 744 mmHg 60%
    11:00 +28°C° 0 mm 5 mps 744 mmHg 57%
    12:00 +29°C° 0 mm 5 mps 744 mmHg 54%
    13:00 +29°C° 0 mm 5 mps 743 mmHg 53%
    14:00 +29°C° 0 mm 5 mps 743 mmHg 52%
    15:00 +29°C° 0 mm 5 mps 743 mmHg 51%
    16:00 +28°C° 0 mm 5 mps 743 mmHg 54%
    17:00 +28°C° 0 mm 4 mps 743 mmHg 58%
    18:00 +27°C° 0 mm 4 mps 743 mmHg 61%
    19:00 +25°C° 0 mm 4 mps 743 mmHg 64%
    20:00 +23°C° 0 mm 4 mps 743 mmHg 68%
    21:00 +21°C° 0 mm 3 mps 743 mmHg 71%
    22:00 +20°C° 0 mm 3 mps 743 mmHg 73%
    23:00 +19°C° 0 mm 3 mps 743 mmHg 74%

    29 June, Friday

    Time Temperature Precipitation Wind Pressure Humidity
    00:00 +18°C° 0 mm 3 mps 743 mmHg 76%
    01:00 +18°C° 0 mm 3 mps 743 mmHg 77%
    02:00 +17°C° 0 mm 3 mps 743 mmHg 78%
    03:00 +17°C° 0 mm 3 mps 743 mmHg 79%
    04:00 +18°C° 0 mm 3 mps 743 mmHg 77%
    05:00 +18°C° 0 mm 3 mps 743 mmHg 75%
    06:00 +19°C° 0 mm 3 mps 743 mmHg 74%
    07:00 +21°C° 0 mm 3 mps 743 mmHg 68%
    08:00 +24°C° 0 mm 3 mps 743 mmHg 62%
    09:00 +25°C° 0 mm 4 mps 743 mmHg 56%
    10:00 +26°C° 0 mm 4 mps 743 mmHg 52%
    11:00 +27°C° 0 mm 3 mps 742 mmHg 48%
    12:00 +28°C° 0 mm 3 mps 742 mmHg 44%
    13:00 +28°C° 0 mm 3 mps 742 mmHg 44%
    14:00 +28°C° 0 mm 3 mps 742 mmHg 44%
    15:00 +28°C° 0 mm 2 mps 741 mmHg 43%
    16:00 +28°C° 0 mm 2 mps 741 mmHg 47%
    17:00 +28°C° 0 mm 2 mps 741 mmHg 50%
    18:00 +28°C° 0 mm 2 mps 740 mmHg 53%
    19:00 +26°C° 0 mm 2 mps 740 mmHg 57%
    20:00 +24°C° 0 mm 2 mps 740 mmHg 61%
    21:00 +21°C° 0 mm 2 mps 740 mmHg 65%
    22:00 +20°C° 0 mm 2 mps 740 mmHg 68%
    23:00 +20°C° 0 mm 2 mps 740 mmHg 71%

    30 June, Saturday

    Time Temperature Precipitation Wind Pressure Humidity
    00:00 +19°C° 0 mm 2 mps 740 mmHg 73%
    01:00 +19°C° 0 mm 2 mps 739 mmHg 76%
    02:00 +18°C° 0 mm 2 mps 739 mmHg 78%
    03:00 +18°C° 0 mm 2 mps 739 mmHg 80%
    04:00 +18°C° 0 mm 2 mps 739 mmHg 79%
    05:00 +19°C° 0 mm 2 mps 739 mmHg 77%
    06:00 +20°C° 0 mm 2 mps 739 mmHg 76%
    07:00 +23°C° 0 mm 2 mps 739 mmHg 70%
    08:00 +25°C° 0 mm 2 mps 739 mmHg 64%
    09:00 +26°C° 0 mm 3 mps 739 mmHg 58%
    10:00 +27°C° 0 mm 3 mps 738 mmHg 52%
    11:00 +29°C° 0 mm 3 mps 738 mmHg 47%
    12:00 +30°C° 0 mm 3 mps 738 mmHg 41%
    13:00 +30°C° 0 mm 3 mps 737 mmHg 40%
    14:00 +31°C° 0 mm 3 mps 737 mmHg 39%
    15:00 +31°C° 0 mm 3 mps 736 mmHg 38%
    16:00 +31°C° 0 mm 3 mps 736 mmHg 42%
    17:00 +31°C° 0 mm 3 mps 735 mmHg 46%
    18:00 +30°C° 0 mm 3 mps 734 mmHg 50%
    19:00 +29°C° 0.7 mm 4 mps 734 mmHg 53%
    20:00 +27°C° 0.7 mm 5 mps 733 mmHg 57%
    21:00 +25°C° 0.7 mm 5 mps 732 mmHg 61%
    22:00 +23°C° 2.1 mm 4 mps 732 mmHg 69%
    23:00 +22°C° 2.1 mm 3 mps 732 mmHg 78%
    Show more